Flag for Germany Weather past 2 weeks in Schwedt/Oder, Brandenburg, Germany

Now
39 °F

Passing clouds.


Feels Like: 32 °F
Forecast: 35 / 43 °F
Wind: 13 mph from Southwest

Location: Szczecin Airport

Current Time: Mar 2, 2015 at 6:36:21 PM

Latest Report: Mar 2, 2015 at 6:00 PM


Visibility: N/A

Pressure: 29.50 "Hg

Humidity: 75%

Dew point: 32 °F

Location of Schwedt/OderLocation

Historic Weather in Schwedt/Oder — Graph

°F

Schwedt/Oder temperature yesterday

Maximum temperature yesterday: 41 °F (at 12:00 PM)
Minimum temperature yesterday: 30 °F (at 1:00 AM)
Average temperature yesterday: 36 °F

Past Weeks' High & Low Weather Summary

 TemperatureHumidityPressure
High50 °F (Feb 21, 1:00 PM)100% (Feb 20, 5:30 AM)30.66 "Hg (Feb 20, 5:30 AM)
Low23 °F (Feb 26, 7:30 AM)4% (Feb 16, 1:00 AM)29.33 "Hg (Feb 21, 2:00 PM)
Average36 °F79%29.96 "Hg
* Reported Feb 15 5:00 PM — Mar 2 5:30 PM, Schwedt/Oder, Weather by CustomWeather, © 2015

Note: Actual official high and low records may vary slightly from our data, if they occured in-between our weather recording intervals... More about our weather records

Advertising

Schwedt/Oder weather history for previous 24 hours

 ConditionsComfort  
Time TempWeatherWind HumidityBarometerVisibility
5:30 PM
Mon, Mar 2
41 °FPartly sunny.15 mph70%29.50 "HgN/A
5:00 PM41 °FPartly sunny.13 mph76%29.47 "HgN/A
4:30 PM41 °FPartly sunny.14 mph76%29.47 "HgN/A
4:00 PM41 °FPartly sunny.17 mph76%29.47 "HgN/A
3:30 PM39 °FSprinkles. Partly sunny.18 mph81%29.45 "HgN/A
3:00 PM43 °FBroken clouds.16 mph66%29.42 "HgN/A
2:30 PM43 °FPartly sunny.13 mph66%29.42 "HgN/A
2:00 PM43 °FPartly sunny.20 mph66%29.42 "HgN/A
1:30 PM43 °FPartly sunny.16 mph66%29.39 "HgN/A
1:00 PM43 °FPartly sunny.20 mph71%29.39 "HgN/A
12:30 PM43 °FPartly sunny.17 mph66%29.39 "HgN/A
12:00 PM41 °FPartly sunny.18 mph76%29.36 "HgN/A
11:30 AM41 °FBroken clouds.15 mph81%29.36 "HgN/A
11:00 AM41 °FBroken clouds.15 mph81%29.36 "HgN/A
10:30 AM39 °FLight rain. Broken clouds.12 mph93%29.36 "HgN/A
10:00 AM39 °FBroken clouds.9 mph93%29.36 "HgN/A
9:30 AM37 °FLight rain. Partly sunny.8 mph100%29.33 "Hg5 mi
9:00 AM37 °FLight rain. Fog.9 mph93%29.33 "Hg3 mi
8:30 AM37 °FLight rain. Fog.12 mph93%29.36 "Hg2 mi
8:00 AM36 °FLight rain. Passing clouds.12 mph93%29.33 "HgN/A
7:30 AM36 °FPassing clouds.10 mph93%29.36 "HgN/A
7:00 AM36 °FSunny.10 mph93%29.36 "Hg10 mi
6:30 AM34 °FClear.10 mph93%29.39 "Hg10 mi
6:00 AM34 °FClear.9 mph93%29.39 "Hg10 mi
5:30 AM34 °FClear.9 mph93%29.42 "Hg10 mi
5:00 AM34 °FClear.9 mph100%29.42 "Hg10 mi
4:30 AM34 °FClear.8 mph93%29.45 "Hg5 mi
4:00 AM32 °FClear.7 mph100%29.45 "Hg4 mi
3:30 AM34 °FClear.7 mph93%29.47 "Hg4 mi
3:00 AM34 °FClear.6 mph93%29.50 "Hg10 mi
2:30 AM34 °FClear.6 mph93%29.50 "Hg10 mi
2:00 AM36 °FClear.6 mph93%29.53 "Hg10 mi
1:30 AM34 °FClear.6 mph93%29.53 "Hg10 mi
1:00 AM36 °FClear.5 mph93%29.53 "Hg10 mi
12:30 AM36 °FClear.3 mph93%29.53 "Hg10 mi
12:00 AM37 °FPassing clouds.3 mph93%29.53 "HgN/A
11:30 PM
Sun, Mar 1
37 °FPassing clouds.5 mph93%29.53 "HgN/A
11:00 PM39 °FPassing clouds.5 mph93%29.53 "HgN/A
10:30 PM39 °FPassing clouds.3 mph93%29.53 "HgN/A
10:00 PM39 °FPassing clouds.3 mph93%29.53 "Hg4 mi
9:30 PM39 °FLight rain. Passing clouds.2 mph93%29.53 "Hg5 mi
9:00 PM39 °FPassing clouds.12 mph93%29.56 "Hg4 mi
8:30 PM39 °FFog.6 mph100%29.53 "Hg3 mi
8:00 PM39 °FRain. Passing clouds.8 mph100%29.53 "Hg2 mi
7:30 PM39 °FLight rain. Partly cloudy.7 mph93%29.53 "Hg4 mi
7:00 PM39 °FPassing clouds.8 mph93%29.53 "Hg4 mi
6:30 PM39 °FPartly cloudy.8 mph93%29.53 "Hg4 mi
6:00 PM39 °FPartly cloudy.8 mph93%29.53 "Hg4 mi
Weather by CustomWeather, © 2015

See weather overviewHow to use our weather pages